EN

Hourly Weather Acaxochitlan

Today, 28 November, Saturday

Time Temperature Precipitation Wind Pressure Humidity
00:00 +12°C° 0 mm 1 mps 587 mmHg 36%
01:00 +12°C° 0 mm 1 mps 587 mmHg 34%
02:00 +12°C° 0 mm 1 mps 587 mmHg 32%
03:00 +10°C° 0 mm 2 mps 587 mmHg 32%
04:00 +10°C° 0 mm 2 mps 587 mmHg 32%
05:00 +10°C° 0 mm 2 mps 587 mmHg 32%
06:00 +13°C° 0 mm 1 mps 588 mmHg 33%
07:00 +16°C° 0 mm 1 mps 590 mmHg 33%
08:00 +17°C° 0 mm 0 mps 591 mmHg 33%
09:00 +20°C° 0 mm 1 mps 591 mmHg 33%
10:00 +21°C° 0 mm 1 mps 592 mmHg 34%
11:00 +23°C° 0 mm 2 mps 592 mmHg 34%
12:00 +21°C° 0 mm 2 mps 591 mmHg 38%
13:00 +21°C° 0 mm 2 mps 590 mmHg 43%
14:00 +21°C° 0 mm 3 mps 590 mmHg 48%
15:00 +19°C° 0 mm 2 mps 589 mmHg 62%
16:00 +16°C° 0 mm 1 mps 588 mmHg 76%
17:00 +14°C° 0 mm 1 mps 587 mmHg 90%
18:00 +12°C° 0 mm 0 mps 587 mmHg 88%
19:00 +12°C° 0 mm 0 mps 587 mmHg 86%
20:00 +12°C° 0 mm 0 mps 588 mmHg 83%
21:00 +12°C° 0 mm 1 mps 588 mmHg 77%
22:00 +12°C° 0 mm 1 mps 587 mmHg 71%
23:00 +12°C° 0 mm 1 mps 587 mmHg 65%

Tomorrow, 29 November, Sunday

Time Temperature Precipitation Wind Pressure Humidity
00:00 +12°C° 0 mm 1 mps 587 mmHg 63%
01:00 +11°C° 0 mm 1 mps 586 mmHg 62%
02:00 +10°C° 0 mm 2 mps 586 mmHg 60%
03:00 +11°C° 0 mm 1 mps 586 mmHg 62%
04:00 +11°C° 0 mm 1 mps 586 mmHg 64%
05:00 +10°C° 0 mm 1 mps 586 mmHg 66%
06:00 +12°C° 0 mm 1 mps 587 mmHg 62%
07:00 +14°C° 0 mm 0 mps 589 mmHg 57%
08:00 +16°C° 0 mm 0 mps 590 mmHg 52%
09:00 +19°C° 0 mm 1 mps 590 mmHg 52%
10:00 +19°C° 0 mm 2 mps 591 mmHg 51%
11:00 +20°C° 0 mm 3 mps 591 mmHg 50%
12:00 +19°C° 0 mm 3 mps 590 mmHg 57%
13:00 +18°C° 0 mm 3 mps 590 mmHg 63%
14:00 +18°C° 0 mm 3 mps 589 mmHg 70%
15:00 +16°C° 0.2 mm 2 mps 589 mmHg 78%
16:00 +15°C° 0.2 mm 2 mps 589 mmHg 87%
17:00 +13°C° 0.2 mm 2 mps 588 mmHg 96%
18:00 +13°C° 0.2 mm 1 mps 589 mmHg 95%
19:00 +13°C° 0.2 mm 1 mps 589 mmHg 95%
20:00 +13°C° 0.2 mm 1 mps 590 mmHg 95%
21:00 +13°C° 0.4 mm 1 mps 590 mmHg 95%
22:00 +12°C° 0.4 mm 1 mps 590 mmHg 96%
23:00 +12°C° 0.4 mm 1 mps 590 mmHg 96%

Day after tomorrow, 30 November, Monday

Time Temperature Precipitation Wind Pressure Humidity
00:00 +12°C° 0.5 mm 1 mps 590 mmHg 96%
01:00 +11°C° 0.5 mm 1 mps 590 mmHg 96%
02:00 +11°C° 0.5 mm 1 mps 589 mmHg 96%
03:00 +10°C° 0.3 mm 1 mps 589 mmHg 96%
04:00 +9°C° 0.3 mm 2 mps 590 mmHg 96%
05:00 +9°C° 0.3 mm 2 mps 590 mmHg 96%
06:00 +8°C° 0.1 mm 2 mps 590 mmHg 95%
07:00 +7°C° 0.1 mm 2 mps 590 mmHg 95%
08:00 +7°C° 0.1 mm 2 mps 590 mmHg 94%
09:00 +7°C° 0 mm 2 mps 590 mmHg 92%
10:00 +7°C° 0 mm 2 mps 590 mmHg 90%
11:00 +6°C° 0 mm 2 mps 590 mmHg 87%
12:00 +6°C° 0 mm 2 mps 589 mmHg 87%
13:00 +6°C° 0 mm 2 mps 588 mmHg 87%
14:00 +6°C° 0 mm 2 mps 588 mmHg 87%
15:00 +5°C° 0 mm 2 mps 588 mmHg 89%
16:00 +5°C° 0 mm 2 mps 588 mmHg 91%
17:00 +4°C° 0 mm 2 mps 588 mmHg 93%
18:00 +5°C° 0 mm 1 mps 588 mmHg 93%
19:00 +5°C° 0 mm 1 mps 588 mmHg 93%
20:00 +5°C° 0 mm 1 mps 589 mmHg 93%
21:00 +5°C° 0 mm 1 mps 589 mmHg 93%
22:00 +5°C° 0 mm 1 mps 589 mmHg 93%
23:00 +5°C° 0 mm 1 mps 589 mmHg 93%

1 December, Tuesday

Time Temperature Precipitation Wind Pressure Humidity
00:00 +4°C° 0 mm 0 mps 588 mmHg 93%
01:00 +4°C° 0 mm 0 mps 588 mmHg 93%
02:00 +4°C° 0 mm 0 mps 587 mmHg 93%
03:00 +5°C° 0 mm 1 mps 587 mmHg 93%
04:00 +5°C° 0 mm 1 mps 587 mmHg 93%
05:00 +5°C° 0 mm 1 mps 587 mmHg 93%
06:00 +7°C° 0 mm 1 mps 588 mmHg 86%
07:00 +9°C° 0 mm 1 mps 589 mmHg 80%
08:00 +11°C° 0 mm 1 mps 590 mmHg 73%
09:00 +12°C° 0 mm 2 mps 590 mmHg 67%
10:00 +14°C° 0 mm 2 mps 590 mmHg 61%
11:00 +15°C° 0 mm 2 mps 591 mmHg 55%
12:00 +15°C° 0 mm 2 mps 590 mmHg 56%
13:00 +14°C° 0 mm 3 mps 589 mmHg 57%
14:00 +14°C° 0 mm 3 mps 588 mmHg 58%
15:00 +14°C° 0 mm 2 mps 587 mmHg 66%
16:00 +12°C° 0 mm 1 mps 587 mmHg 74%
17:00 +10°C° 0 mm 1 mps 586 mmHg 82%
18:00 +10°C° 0 mm 1 mps 586 mmHg 82%
19:00 +10°C° 0 mm 1 mps 587 mmHg 81%
20:00 +9°C° 0 mm 2 mps 587 mmHg 81%
21:00 +9°C° 0 mm 2 mps 587 mmHg 83%
22:00 +9°C° 0 mm 2 mps 586 mmHg 84%
23:00 +8°C° 0 mm 2 mps 586 mmHg 86%

2 December, Wednesday

Time Temperature Precipitation Wind Pressure Humidity
00:00 +8°C° 0 mm 2 mps 586 mmHg 86%
01:00 +8°C° 0 mm 2 mps 586 mmHg 87%
02:00 +8°C° 0 mm 2 mps 585 mmHg 87%
03:00 +8°C° 0 mm 2 mps 585 mmHg 87%
04:00 +8°C° 0 mm 2 mps 586 mmHg 86%
05:00 +8°C° 0 mm 2 mps 586 mmHg 86%
06:00 +10°C° 0 mm 2 mps 587 mmHg 78%
07:00 +13°C° 0 mm 2 mps 588 mmHg 71%
08:00 +14°C° 0 mm 2 mps 589 mmHg 63%
09:00 +16°C° 0 mm 2 mps 590 mmHg 55%
10:00 +18°C° 0 mm 2 mps 590 mmHg 47%
11:00 +20°C° 0 mm 2 mps 591 mmHg 38%
12:00 +19°C° 0 mm 2 mps 590 mmHg 41%
13:00 +19°C° 0 mm 2 mps 589 mmHg 44%
14:00 +19°C° 0 mm 2 mps 589 mmHg 47%
15:00 +16°C° 0 mm 2 mps 588 mmHg 61%
16:00 +14°C° 0 mm 1 mps 587 mmHg 74%
17:00 +10°C° 0 mm 0 mps 586 mmHg 88%
18:00 +10°C° 0 mm 0 mps 587 mmHg 85%
19:00 +11°C° 0 mm 1 mps 587 mmHg 82%
20:00 +11°C° 0 mm 1 mps 587 mmHg 80%
21:00 +11°C° 0 mm 1 mps 587 mmHg 79%
22:00 +10°C° 0 mm 1 mps 587 mmHg 78%
23:00 +10°C° 0 mm 1 mps 587 mmHg 77%

3 December, Thursday

Time Temperature Precipitation Wind Pressure Humidity
00:00 +9°C° 0 mm 1 mps 587 mmHg 79%
01:00 +9°C° 0 mm 1 mps 587 mmHg 81%
02:00 +9°C° 0 mm 1 mps 586 mmHg 83%
03:00 +9°C° 0 mm 1 mps 586 mmHg 84%
04:00 +9°C° 0 mm 1 mps 586 mmHg 85%
05:00 +8°C° 0 mm 1 mps 586 mmHg 86%
06:00 +10°C° 0 mm 1 mps 588 mmHg 81%
07:00 +11°C° 0 mm 1 mps 589 mmHg 75%
08:00 +13°C° 0 mm 1 mps 590 mmHg 70%
09:00 +13°C° 0 mm 1 mps 590 mmHg 69%
10:00 +14°C° 0 mm 2 mps 590 mmHg 69%
11:00 +15°C° 0 mm 2 mps 590 mmHg 68%
12:00 +14°C° 0.1 mm 2 mps 589 mmHg 73%
13:00 +13°C° 0.1 mm 2 mps 589 mmHg 78%
14:00 +13°C° 0.1 mm 2 mps 588 mmHg 83%
15:00 +12°C° 0 mm 2 mps 588 mmHg 87%
16:00 +10°C° 0 mm 2 mps 588 mmHg 91%
17:00 +9°C° 0 mm 2 mps 587 mmHg 95%
18:00 +9°C° 0 mm 2 mps 588 mmHg 95%
19:00 +8°C° 0 mm 2 mps 588 mmHg 95%
20:00 +9°C° 0 mm 1 mps 589 mmHg 96%
21:00 +9°C° 0 mm 1 mps 589 mmHg 95%
22:00 +9°C° 0 mm 1 mps 589 mmHg 95%
23:00 +8°C° 0 mm 1 mps 589 mmHg 94%
Show more